Location: Unspecified
(0.0000°N, 0.0000°E)
Time: 21:36:21
(UTC+02:00)

PROBA 2 - Visible Passes

Search period start: 31 July 2014 00:00
Search period end: 10 August 2014 00:00
Orbit: 708 x 726 km, 98.3° (Epoch: 30 July)

Date Brightness Start Highest point End Pass type
(mag) Time Alt. Az. Time Alt. Az. Time Alt. Az.
31 Jul ? 07:37:49 10° SE 07:41:45 26° ENE 07:45:39 10° NNE visible
01 Aug ? 20:48:00 10° NNW 20:52:26 36° WNW 20:56:53 10° SW visible
02 Aug ? 07:34:32 10° SE 07:38:17 23° ENE 07:42:02 10° NNE visible
03 Aug ? 20:44:27 10° N 20:48:59 40° WNW 20:53:32 10° SSW visible
04 Aug ? 07:31:16 10° SE 07:34:50 21° ENE 07:38:23 10° NNE visible
05 Aug ? 20:40:55 10° N 20:45:32 45° WNW 20:50:09 10° SSW visible
06 Aug ? 07:28:02 10° ESE 07:31:22 19° ENE 07:34:42 10° NNE visible
06 Aug ? 21:31:30 10° WNW 21:32:40 11° WNW 21:33:49 10° W visible
07 Aug ? 20:37:24 10° N 20:42:05 50° WNW 20:46:46 10° SSW visible
08 Aug ? 07:24:50 10° ESE 07:27:55 17° ENE 07:30:59 10° NE visible
08 Aug ? 21:27:20 10° NW 21:29:13 12° WNW 21:31:05 10° W visible
09 Aug ? 20:33:53 10° N 20:38:37 56° WNW 20:43:22 10° SSW visible
